This is the latest recevied weather packets stored in our database for station/object XE3JAR. If no packets are shown the sender has not sent any weather packets the latest 10 day(s).
| Time | Temp. | Humidity | Pressure | Rain* | Wind** | Luminosity | Snow |
|---|---|---|---|---|---|---|---|
| 1777955579 | 27.22° C | 96% | 1016.6 hPa | - | - | - | - |
| 1777952530 | 27.22° C | 97% | 1015.9 hPa | - | - | - | - |
| 1777951924 | 27.22° C | 96% | 1015.9 hPa | - | - | - | - |
| 1777950261 | 27.22° C | 96% | 1015.6 hPa | - | - | - | - |
| 1777949344 | 27.22° C | 95% | 1015.6 hPa | - | - | - | - |
| 1777949041 | 27.22° C | 95% | 1015.6 hPa | - | - | - | - |
| 1777947073 | 27.22° C | 95% | 1015.2 hPa | - | - | - | - |
| 1777944009 | 27.78° C | 92% | 1014.9 hPa | - | - | - | - |
| 1777943406 | 27.78° C | 91% | 1014.9 hPa | - | - | - | - |
| 1777942794 | 27.78° C | 91% | 1014.9 hPa | - | - | - | - |
| 1777938625 | 28.89° C | 87% | 1014.9 hPa | - | - | - | - |
| 1777936807 | 28.89° C | 87% | 1014.9 hPa | - | - | - | - |
| 1777936495 | 28.89° C | 86% | 1014.9 hPa | - | - | - | - |
| 1777933480 | 33.89° C | 75% | 1014.9 hPa | - | - | - | - |
| 1777932545 | 33.89° C | 74% | 1015.2 hPa | - | - | - | - |
| 1777927347 | 37.78° C | 63% | 1015.6 hPa | - | - | - | - |
| 1777927022 | 37.78° C | 64% | 1015.6 hPa | - | - | - | - |
| 1777926414 | 36.11° C | 68% | 1015.9 hPa | - | - | - | - |
| 1777926109 | 37.22° C | 67% | 1015.9 hPa | - | - | - | - |
| 1777923977 | 36.11° C | 69% | 1016.3 hPa | - | - | - | - |
| 1777921846 | 35° C | 70% | 1017.3 hPa | - | - | - | - |
| 1777921536 | 33.89° C | 73% | 1017.3 hPa | - | - | - | - |
| 1777920931 | 36.11° C | 69% | 1017.6 hPa | - | - | - | - |
| 1777920624 | 36.11° C | 69% | 1017.6 hPa | - | - | - | - |
| 1777917891 | 33.89° C | 73% | 1018 hPa | - | - | - | - |
* Rain since midnight (hover to see other rain measurements)
** Current wind speed in m/s (hover to see current wind gust speed)